Regional Weather Roundup
Issued by NWS

Home | Current Version | Previous Version | Graphics & Text | Print | Product List | Glossary On
Versions: 1 2 3 4 5 6 7 8 9 10 11 12 13 14 15 16 17 18 19 20 21 22 23 24 25 26 27 28 29 30 31 32 33 34 35 36 37 38 39 40 41 42 43 44 45 46 47 48 49 50
000
ASUS43 KFSD 210002
RWRSD

WEATHER ROUNDUP FOR SOUTH DAKOTA
NATIONAL WEATHER SERVICE SIOUX FALLS SD
600 PM CST SAT JAN 20 2018

NOTE: "FAIR" INDICATES FEW OR NO CLOUDS BELOW 12,000 FEET WITH NO
SIGNIFICANT WEATHER AND/OR OBSTRUCTIONS TO VISIBILITY.


SDZ001>005-009-010-012>017-210100-
NORTHWEST AND NORTH CENTRAL SOUTH DAKOTA

CITY           SKY/WX    TMP DP  RH WIND       PRES   REMARKS
BUFFALO          N/A     33  25  72 NW9       29.86R WCI  25
FAITH            N/A     35  31  85 W7        29.93R WCI  29
MOBRIDGE       CLOUDY    36  28  73 NW3       29.89R
$$

SDZ012>016-024>037-041>051-057-063-072>074-210100-
SOUTHWEST AND SOUTH CENTRAL SOUTH DAKOTA

CITY           SKY/WX    TMP DP  RH WIND       PRES   REMARKS
RAPID CTY ARPT FLURRIES  32  28  85 N5        29.94S WCI  27
PIERRE         CLOUDY    37  37 100 W6        29.93R
CUSTER         SNOW      26  22  84 NE6       29.85S VSB 1/2 WCI  19
ELLSWORTH AFB  CLOUDY    35  29  78 N5        29.93
PHILIP         LGT RAIN  38  31  76 VRB3      29.95S
SPEARFISH        N/A     32  27  80 CALM      29.93R
WINNER         FAIR      37  33  85 N5        29.92R
$$

SDZ004>011-016>023-039-040-210100-
NORTHEAST SOUTH DAKOTA

CITY           SKY/WX    TMP DP  RH WIND       PRES   REMARKS
ABERDEEN       MOCLDY    39  30  70 W6        29.92R
WATERTOWN      CLOUDY    38  30  73 CALM      29.90R
BROOKINGS        N/A     38  29  70 NW3       29.91R
SISSETON         N/A     32  25  75 SW3       29.90R
$$

SDZ017-020-022-023-036>040-048>070-210100-
SOUTHEAST SOUTH DAKOTA

CITY           SKY/WX    TMP DP  RH WIND       PRES   REMARKS
SIOUX FALLS    CLOUDY    35  32  88 CALM      29.89S
HURON          CLOUDY    37  32  82 NW3       29.92R
CHAMBERLAIN    CLOUDY    40  37  89 NW3       29.92R
MITCHELL       CLOUDY    37  33  85 N6        29.91S
YANKTON        CLOUDY    34  29  82 N9        29.88S WCI  27
$$

ABBREVIATIONS USED IN REMARKS
   TC - TEMPERATURE IN CELSIUS
  WCI - WIND CHILL INDEX
   HX - HEAT INDEX
  VSB - VISIBILITY




USA.gov is the U.S. government's official web portal to all federal, state and local government web resources and services.